| time (UTC) | temp F | wind direction | speed knots | gust knots | rain 1hr in | rain 24hr in | rain mn in | humidity % | barometer mb |
| 20260506015002 | 68 | 254 | 0.9 | 5.2 | 0.00 | 0.00 | 0.00 | 54 | 1013.7 |
| 20260506014502 | 68 | 232 | 0.9 | 4.3 | 0.00 | 0.00 | 0.00 | 53 | 1013.8 |
| 20260506014002 | 69 | 194 | 1.7 | 3.5 | 0.00 | 0.00 | 0.00 | 52 | 1013.7 |
| 20260506013502 | 69 | 0 | 0.0 | 2.6 | 0.00 | 0.00 | 0.00 | 51 | 1013.8 |
| 20260506013002 | 69 | 0 | 0.0 | 2.6 | 0.00 | 0.00 | 0.00 | 52 | 1013.7 |
| 20260506012502 | 70 | 272 | 0.9 | 2.6 | 0.00 | 0.00 | 0.00 | 49 | 1013.7 |
| 20260506012001 | 70 | 0 | 0.0 | 2.6 | 0.00 | 0.00 | 0.00 | 49 | 1013.7 |
| 20260506011502 | 70 | 0 | 0.0 | 1.7 | 0.00 | 0.00 | 0.00 | 50 | 1013.7 |
| 20260506011001 | 70 | 0 | 0.0 | 1.7 | 0.00 | 0.00 | 0.00 | 50 | 1013.7 |
| 20260506010502 | 69 | 0 | 0.0 | 4.3 | 0.00 | 0.00 | 0.00 | 51 | 1013.7 |
| 20260506010001 | 69 | 0 | 0.0 | 4.3 | 0.00 | 0.00 | 0.00 | 51 | 1013.8 |
| 20260506005501 | 69 | 334 | 0.9 | 3.5 | 0.00 | 0.00 | 0.00 | 52 | 1013.7 |
| 20260506005001 | 69 | 0 | 0.0 | 1.7 | 0.00 | 0.00 | 0.00 | 52 | 1013.6 |
| 20260506004503 | 68 | 0 | 0.0 | 3.5 | 0.00 | 0.00 | 0.00 | 53 | 1013.6 |
| 20260506004002 | 68 | 319 | 0.9 | 3.5 | 0.00 | 0.00 | 0.00 | 54 | 1013.6 |
| 20260506003501 | 67 | 0 | 0.0 | 3.5 | 0.00 | 0.00 | 0.00 | 55 | 1013.6 |
| 20260506003001 | 67 | 329 | 0.9 | 3.5 | 0.00 | 0.00 | 0.00 | 56 | 1013.6 |
| 20260506002502 | 66 | 302 | 1.7 | 3.5 | 0.00 | 0.00 | 0.00 | 56 | 1013.7 |
| 20260506002002 | 66 | 0 | 0.0 | 3.5 | 0.00 | 0.00 | 0.00 | 56 | 1013.7 |
| 20260506001503 | 66 | 281 | 0.9 | 3.5 | 0.00 | 0.00 | 0.00 | 56 | 1013.7 |
| 20260506001002 | 66 | 272 | 2.6 | 5.2 | 0.00 | 0.00 | 0.00 | 56 | 1013.8 |
| 20260506000503 | 66 | 294 | 1.7 | 5.2 | 0.00 | 0.00 | 0.00 | 56 | 1013.8 |
| 20260506000001 | 66 | 0 | 0.0 | 3.5 | 0.00 | 0.00 | 0.00 | 56 | 1013.8 |
| 20260505235501 | 66 | 0 | 0.0 | 3.5 | 0.00 | 0.00 | 0.00 | 56 | 1013.8 |
| 20260505235001 | 66 | 333 | 1.7 | 4.3 | 0.00 | 0.00 | 0.00 | 56 | 1013.8 |
| 20260505234502 | 66 | 347 | 1.7 | 4.3 | 0.00 | 0.00 | 0.00 | 56 | 1013.9 |
| 20260505234002 | 66 | 357 | 1.7 | 7.0 | 0.00 | 0.00 | 0.00 | 56 | 1014.0 |
| 20260505233504 | 66 | 2 | 2.6 | 7.0 | 0.00 | 0.00 | 0.00 | 56 | 1014.0 |
| 20260505233004 | 66 | 0 | 0.0 | 4.3 | 0.00 | 0.00 | 0.00 | 56 | 1014.0 |
| 20260505232502 | 66 | 318 | 1.7 | 4.3 | 0.00 | 0.00 | 0.00 | 56 | 1014.0 |
| 20260505232002 | 66 | 328 | 1.7 | 4.3 | 0.00 | 0.00 | 0.00 | 57 | 1014.0 |
| 20260505231501 | 65 | 312 | 1.7 | 4.3 | 0.00 | 0.00 | 0.00 | 56 | 1013.9 |
| 20260505231002 | 65 | 302 | 0.9 | 3.5 | 0.00 | 0.00 | 0.00 | 57 | 1014.0 |
| 20260505230002 | 65 | 340 | 0.9 | 4.3 | 0.00 | 0.00 | 0.00 | 59 | 1014.0 |
| 20260505225501 | 65 | 360 | 1.7 | 5.2 | 0.00 | 0.00 | 0.00 | 60 | 1014.1 |
| 20260505225001 | 65 | 307 | 3.5 | 5.2 | 0.00 | 0.00 | 0.00 | 61 | 1014.2 |
| 20260505224502 | 65 | 0 | 0.0 | 3.5 | 0.00 | 0.00 | 0.00 | 60 | 1014.2 |
| 20260505224002 | 65 | 52 | 1.7 | 4.3 | 0.00 | 0.00 | 0.00 | 61 | 1014.3 |
| 20260505223502 | 65 | 326 | 0.9 | 4.3 | 0.00 | 0.00 | 0.00 | 61 | 1014.3 |
| 20260505223001 | 65 | 0 | 0.0 | 4.3 | 0.00 | 0.00 | 0.00 | 62 | 1014.4 |
| 20260505222501 | 64 | 0 | 0.0 | 4.3 | 0.00 | 0.00 | 0.00 | 63 | 1014.3 |
| 20260505222003 | 64 | 0 | 0.0 | 6.1 | 0.00 | 0.00 | 0.00 | 67 | 1014.3 |
| 20260505221502 | 63 | 93 | 1.7 | 8.7 | 0.00 | 0.00 | 0.00 | 69 | 1014.4 |
| 20260505221002 | 63 | 79 | 2.6 | 8.7 | 0.00 | 0.00 | 0.00 | 71 | 1014.4 |
| 20260505220501 | 63 | 77 | 5.2 | 8.7 | 0.00 | 0.00 | 0.00 | 69 | 1014.5 |
| 20260505220001 | 63 | 78 | 5.2 | 9.6 | 0.00 | 0.00 | 0.00 | 67 | 1014.5 |
| 20260505215501 | 63 | 77 | 5.2 | 9.6 | 0.00 | 0.00 | 0.00 | 66 | 1014.6 |
| 20260505214912 | 63 | 60 | 5.2 | 10.4 | 0.00 | 0.00 | 0.00 | 67 | 1014.7 |
| 20260505214413 | 63 | 59 | 6.1 | 9.6 | 0.00 | 0.00 | 0.00 | 68 | 1014.7 |
| 20260505213913 | 63 | 73 | 6.1 | 11.3 | 0.00 | 0.00 | 0.00 | 67 | 1014.8 |
| 20260505213413 | 64 | 65 | 7.8 | 11.3 | 0.00 | 0.00 | 0.00 | 65 | 1014.8 |
| 20260505212915 | 65 | 59 | 7.8 | 11.3 | 0.00 | 0.00 | 0.00 | 62 | 1014.8 |
| 20260505212227 | 66 | 348 | 1.7 | 6.1 | 0.00 | 0.00 | 0.00 | 59 | 1014.8 |
| 20260505211726 | 66 | 324 | 1.7 | 6.1 | 0.00 | 0.00 | 0.00 | 58 | 1014.8 |
| 20260505211228 | 66 | 23 | 1.7 | 6.1 | 0.00 | 0.00 | 0.00 | 57 | 1014.8 |
| 20260505210226 | 65 | 0 | 0.0 | 3.5 | 0.00 | 0.00 | 0.00 | 58 | 1014.7 |
| 20260505205727 | 65 | 0 | 0.0 | 4.3 | 0.00 | 0.00 | 0.00 | 58 | 1014.7 |
| 20260505205226 | 65 | 0 | 0.0 | 7.0 | 0.00 | 0.00 | 0.00 | 59 | 1014.7 |
| 20260505204727 | 66 | 62 | 2.6 | 7.0 | 0.00 | 0.00 | 0.00 | 58 | 1014.7 |
| 20260505204228 | 66 | 71 | 1.7 | 4.3 | 0.00 | 0.00 | 0.00 | 59 | 1014.8 |
| 20260505203727 | 66 | 119 | 0.9 | 7.8 | 0.00 | 0.00 | 0.00 | 60 | 1014.7 |
| 20260505203227 | 65 | 0 | 0.0 | 8.7 | 0.00 | 0.00 | 0.00 | 60 | 1014.7 |
| 20260505202727 | 65 | 82 | 3.5 | 8.7 | 0.00 | 0.00 | 0.00 | 61 | 1014.8 |
| 20260505202228 | 65 | 73 | 3.5 | 7.8 | 0.00 | 0.00 | 0.00 | 60 | 1014.8 |
| 20260505201227 | 65 | 48 | 0.9 | 2.6 | 0.00 | 0.00 | 0.00 | 59 | 1014.8 |
| 20260505200726 | 65 | 0 | 0.0 | 4.3 | 0.00 | 0.00 | 0.00 | 59 | 1014.8 |
| 20260505200227 | 65 | 311 | 1.7 | 4.3 | 0.00 | 0.00 | 0.00 | 59 | 1014.9 |
| 20260505195726 | 65 | 304 | 1.7 | 7.0 | 0.00 | 0.00 | 0.00 | 58 | 1014.8 |
| 20260505195226 | 66 | 8 | 2.6 | 7.0 | 0.00 | 0.00 | 0.00 | 59 | 1014.9 |
| 20260505194726 | 65 | 0 | 0.0 | 6.1 | 0.00 | 0.00 | 0.00 | 59 | 1015.0 |
| 20260505194227 | 65 | 63 | 1.7 | 7.0 | 0.00 | 0.00 | 0.00 | 58 | 1015.0 |
| 20260505193726 | 65 | 28 | 2.6 | 7.0 | 0.00 | 0.00 | 0.00 | 60 | 1015.0 |
| 20260505193226 | 65 | 20 | 0.9 | 6.1 | 0.00 | 0.00 | 0.00 | 62 | 1015.0 |
| 20260505192726 | 64 | 246 | 2.6 | 6.1 | 0.00 | 0.00 | 0.00 | 61 | 1015.0 |
| 20260505192226 | 64 | 302 | 0.9 | 5.2 | 0.00 | 0.00 | 0.00 | 62 | 1015.0 |
| 20260505191726 | 64 | 0 | 0.0 | 5.2 | 0.00 | 0.00 | 0.00 | 62 | 1015.1 |
| 20260505191226 | 64 | 254 | 1.7 | 5.2 | 0.00 | 0.00 | 0.00 | 62 | 1015.2 |
| 20260505190726 | 64 | 283 | 0.9 | 5.2 | 0.00 | 0.00 | 0.00 | 63 | 1015.1 |
| 20260505190226 | 63 | 0 | 0.0 | 5.2 | 0.00 | 0.00 | 0.00 | 65 | 1015.2 |
| 20260505185726 | 63 | 312 | 0.9 | 7.0 | 0.00 | 0.00 | 0.00 | 65 | 1015.3 |
| 20260505185226 | 63 | 41 | 3.5 | 7.0 | 0.00 | 0.00 | 0.00 | 67 | 1015.3 |
| 20260505184727 | 62 | 312 | 3.5 | 7.0 | 0.00 | 0.00 | 0.00 | 66 | 1015.2 |
| 20260505184226 | 62 | 308 | 1.7 | 5.2 | 0.00 | 0.00 | 0.00 | 67 | 1015.3 |
| 20260505183726 | 62 | 28 | 0.9 | 4.3 | 0.00 | 0.00 | 0.00 | 68 | 1015.3 |
| 20260505183226 | 61 | 323 | 0.9 | 4.3 | 0.00 | 0.00 | 0.00 | 69 | 1015.2 |
| 20260505182726 | 61 | 0 | 0.0 | 4.3 | 0.00 | 0.00 | 0.00 | 70 | 1015.2 |
| 20260505182226 | 60 | 0 | 0.0 | 7.0 | 0.00 | 0.00 | 0.00 | 71 | 1015.2 |
| 20260505181726 | 60 | 352 | 3.5 | 7.0 | 0.00 | 0.00 | 0.00 | 72 | 1015.3 |
| 20260505180930 | 60 | 352 | 1.7 | 5.2 | 0.00 | 0.00 | 0.00 | 73 | 1015.4 |
| 20260505180429 | 59 | 0 | 0.0 | 5.2 | 0.00 | 0.00 | 0.00 | 75 | 1015.3 |
| 20260505175930 | 59 | 336 | 0.9 | 5.2 | 0.00 | 0.00 | 0.00 | 76 | 1015.2 |
| 20260505175429 | 58 | 0 | 0.0 | 6.1 | 0.00 | 0.00 | 0.00 | 77 | 1015.2 |
| 20260505174929 | 58 | 274 | 3.5 | 6.1 | 0.00 | 0.00 | 0.00 | 77 | 1015.3 |
| 20260505174430 | 57 | 0 | 0.0 | 4.3 | 0.00 | 0.00 | 0.00 | 79 | 1015.3 |
| 20260505173929 | 57 | 318 | 1.7 | 4.3 | 0.00 | 0.00 | 0.00 | 80 | 1015.2 |
| 20260505173430 | 57 | 324 | 1.7 | 3.5 | 0.00 | 0.00 | 0.00 | 82 | 1015.2 |
| 20260505172930 | 56 | 274 | 1.7 | 3.5 | 0.00 | 0.00 | 0.00 | 82 | 1015.2 |
| 20260505171929 | 56 | 316 | 1.7 | 4.3 | 0.00 | 0.00 | 0.00 | 83 | 1015.2 |
| 20260505171429 | 56 | 346 | 1.7 | 6.1 | 0.00 | 0.00 | 0.00 | 82 | 1015.2 |
| 20260505170929 | 56 | 21 | 1.7 | 7.0 | 0.00 | 0.00 | 0.00 | 82 | 1015.2 |
| 20260505170429 | 56 | 1 | 3.5 | 7.8 | 0.00 | 0.00 | 0.00 | 81 | 1015.2 |
| 20260505165930 | 56 | 351 | 3.5 | 7.8 | 0.00 | 0.00 | 0.00 | 80 | 1015.1 |
| 20260505165429 | 56 | 319 | 3.5 | 7.8 | 0.00 | 0.00 | 0.00 | 80 | 1015.0 |
| 20260505164930 | 56 | 315 | 3.5 | 9.6 | 0.00 | 0.00 | 0.00 | 80 | 1015.0 |
| 20260505164429 | 56 | 310 | 3.5 | 9.6 | 0.00 | 0.00 | 0.00 | 79 | 1015.0 |
| 20260505163929 | 57 | 313 | 6.1 | 10.4 | 0.00 | 0.00 | 0.00 | 78 | 1015.0 |
| 20260505163429 | 57 | 314 | 6.1 | 10.4 | 0.00 | 0.00 | 0.00 | 77 | 1014.9 |
| 20260505162929 | 57 | 321 | 5.2 | 9.6 | 0.00 | 0.00 | 0.00 | 75 | 1014.8 |
| 20260505162430 | 57 | 338 | 3.5 | 9.6 | 0.00 | 0.00 | 0.00 | 75 | 1014.8 |
| 20260505161929 | 57 | 338 | 3.5 | 8.7 | 0.00 | 0.00 | 0.00 | 75 | 1014.6 |
| 20260505161429 | 57 | 314 | 6.1 | 10.4 | 0.00 | 0.00 | 0.00 | 75 | 1014.7 |
| 20260505160929 | 58 | 316 | 7.0 | 10.4 | 0.00 | 0.00 | 0.00 | 74 | 1014.6 |
| 20260505160429 | 58 | 333 | 3.5 | 8.7 | 0.00 | 0.00 | 0.00 | 74 | 1014.6 |
| 20260505152930 | 58 | 315 | 5.2 | 12.2 | 0.00 | 0.00 | 0.00 | 70 | 1014.3 |
| 20260505152429 | 58 | 317 | 7.8 | 12.2 | 0.00 | 0.00 | 0.00 | 69 | 1014.2 |
| 20260505151929 | 58 | 316 | 7.0 | 11.3 | 0.00 | 0.00 | 0.00 | 69 | 1014.3 |
| 20260505151430 | 58 | 318 | 4.3 | 10.4 | 0.00 | 0.00 | 0.00 | 69 | 1014.2 |
| 20260505150929 | 58 | 321 | 3.5 | 8.7 | 0.00 | 0.00 | 0.00 | 69 | 1014.1 |
| 20260505150429 | 58 | 326 | 4.3 | 7.8 | 0.00 | 0.00 | 0.00 | 69 | 1014.0 |
| 20260505140241 | 58 | 316 | 1.7 | 4.3 | 0.00 | 0.00 | 0.00 | 69 | 1013.5 |
| 20260505130241 | 58 | 299 | 2.6 | 6.1 | 0.00 | 0.00 | 0.00 | 68 | 1013.2 |
| 20260505124741 | 58 | 278 | 1.7 | 5.2 | 0.00 | 0.00 | 0.00 | 68 | 1013.1 |
| 20260505124241 | 58 | 282 | 2.6 | 6.1 | 0.00 | 0.00 | 0.00 | 68 | 1013.0 |
| 20260505123741 | 58 | 285 | 2.6 | 6.1 | 0.00 | 0.00 | 0.00 | 67 | 1013.0 |
| 20260505123241 | 58 | 281 | 1.7 | 5.2 | 0.00 | 0.00 | 0.00 | 68 | 1012.9 |
| 20260505122243 | 58 | 305 | 1.7 | 6.1 | 0.00 | 0.00 | 0.00 | 69 | 1012.9 |
| 20260505121242 | 58 | 307 | 1.7 | 5.2 | 0.00 | 0.00 | 0.00 | 69 | 1012.9 |
| 20260505120743 | 58 | 317 | 2.6 | 6.1 | 0.00 | 0.00 | 0.00 | 69 | 1012.8 |
| 20260505120242 | 58 | 314 | 2.6 | 6.1 | 0.00 | 0.00 | 0.00 | 68 | 1012.8 |
| 20260505115305 | 58 | 316 | 2.6 | 5.2 | 0.00 | 0.00 | 0.00 | 67 | 1012.8 |
| 20260505114802 | 58 | 325 | 1.7 | 4.3 | 0.00 | 0.00 | 0.00 | 65 | 1012.8 |
| 20260505114304 | 58 | 314 | 1.7 | 4.3 | 0.00 | 0.00 | 0.00 | 65 | 1012.8 |
| 20260505113803 | 58 | 319 | 2.6 | 4.3 | 0.00 | 0.00 | 0.00 | 64 | 1012.7 |
| 20260505113302 | 58 | 320 | 2.6 | 4.3 | 0.00 | 0.00 | 0.00 | 64 | 1012.7 |
| 20260505112802 | 58 | 321 | 1.7 | 6.1 | 0.00 | 0.00 | 0.00 | 64 | 1012.7 |
| 20260505112305 | 58 | 311 | 2.6 | 7.0 | 0.00 | 0.00 | 0.00 | 64 | 1012.7 |
| 20260505111802 | 58 | 312 | 3.5 | 7.0 | 0.00 | 0.00 | 0.00 | 64 | 1012.7 |
| 20260505111302 | 58 | 325 | 2.6 | 6.1 | 0.00 | 0.00 | 0.00 | 64 | 1012.7 |
| 20260505110802 | 58 | 322 | 1.7 | 4.3 | 0.00 | 0.00 | 0.00 | 64 | 1012.7 |
| 20260505110302 | 58 | 322 | 2.6 | 4.3 | 0.00 | 0.00 | 0.00 | 64 | 1012.7 |
| 20260505101804 | 58 | 313 | 1.7 | 4.3 | 0.00 | 0.00 | 0.00 | 62 | 1012.6 |
| 20260505101302 | 58 | 317 | 1.7 | 4.3 | 0.00 | 0.00 | 0.00 | 62 | 1012.7 |
| 20260505100803 | 58 | 335 | 0.9 | 4.3 | 0.00 | 0.00 | 0.00 | 62 | 1012.7 |
| 20260505100302 | 58 | 324 | 1.7 | 4.3 | 0.00 | 0.00 | 0.00 | 61 | 1012.7 |
| 20260505095802 | 59 | 319 | 2.6 | 4.3 | 0.00 | 0.00 | 0.00 | 61 | 1012.8 |
| 20260505095304 | 59 | 321 | 1.7 | 3.5 | 0.00 | 0.00 | 0.00 | 60 | 1012.8 |
| 20260505094802 | 59 | 0 | 0.0 | 3.5 | 0.00 | 0.00 | 0.00 | 59 | 1012.8 |
| 20260505094302 | 59 | 309 | 0.9 | 4.3 | 0.00 | 0.00 | 0.00 | 59 | 1012.9 |
| 20260505093802 | 59 | 312 | 1.7 | 5.2 | 0.00 | 0.00 | 0.00 | 59 | 1012.8 |
| 20260505093302 | 59 | 318 | 2.6 | 5.2 | 0.00 | 0.00 | 0.00 | 58 | 1012.8 |
| 20260505092802 | 59 | 318 | 1.7 | 4.3 | 0.00 | 0.00 | 0.00 | 57 | 1012.9 |
| 20260505092305 | 59 | 319 | 1.7 | 4.3 | 0.00 | 0.00 | 0.00 | 57 | 1012.9 |
| 20260505091804 | 59 | 314 | 1.7 | 4.3 | 0.00 | 0.00 | 0.00 | 57 | 1013.0 |
| 20260505091302 | 59 | 321 | 1.7 | 4.3 | 0.00 | 0.00 | 0.00 | 57 | 1013.0 |
| 20260505090802 | 59 | 324 | 0.9 | 4.3 | 0.00 | 0.00 | 0.00 | 57 | 1013.0 |
| 20260505085845 | 59 | 0 | 0.0 | 2.6 | 0.00 | 0.00 | 0.00 | 56 | 1013.1 |
| 20260505085345 | 59 | 0 | 0.0 | 3.5 | 0.00 | 0.00 | 0.00 | 56 | 1013.1 |
| 20260505084846 | 59 | 348 | 0.9 | 3.5 | 0.00 | 0.00 | 0.00 | 56 | 1013.1 |
| 20260505084345 | 60 | 7 | 0.9 | 3.5 | 0.00 | 0.00 | 0.00 | 55 | 1013.1 |
| 20260505083847 | 60 | 333 | 0.9 | 3.5 | 0.00 | 0.00 | 0.00 | 55 | 1013.1 |
| 20260505083346 | 60 | 0 | 0.0 | 3.5 | 0.00 | 0.00 | 0.00 | 53 | 1013.1 |
| 20260505082846 | 60 | 279 | 0.9 | 3.5 | 0.00 | 0.00 | 0.00 | 53 | 1013.1 |
| 20260505082346 | 60 | 278 | 1.7 | 3.5 | 0.00 | 0.00 | 0.00 | 53 | 1013.1 |
| 20260505081846 | 60 | 275 | 1.7 | 3.5 | 0.00 | 0.00 | 0.00 | 53 | 1013.1 |
| 20260505081225 | 60 | 277 | 1.7 | 4.3 | 0.00 | 0.00 | 0.00 | 53 | 1013.1 |
| 20260505080725 | 60 | 307 | 1.7 | 5.2 | 0.00 | 0.00 | 0.00 | 54 | 1013.2 |
| 20260505080225 | 60 | 313 | 2.6 | 6.1 | 0.00 | 0.00 | 0.00 | 53 | 1013.2 |
| 20260505075724 | 60 | 312 | 2.6 | 6.1 | 0.00 | 0.00 | 0.00 | 53 | 1013.2 |
| 20260505075225 | 60 | 295 | 3.5 | 7.8 | 0.00 | 0.00 | 0.00 | 53 | 1013.2 |
| 20260505074724 | 60 | 305 | 4.3 | 7.8 | 0.00 | 0.00 | 0.00 | 54 | 1013.2 |
| 20260505074225 | 60 | 307 | 2.6 | 7.0 | 0.00 | 0.00 | 0.00 | 55 | 1013.2 |
| 20260505073724 | 60 | 306 | 2.6 | 7.0 | 0.00 | 0.00 | 0.00 | 56 | 1013.2 |
| 20260505073224 | 60 | 315 | 3.5 | 8.7 | 0.00 | 0.00 | 0.00 | 56 | 1013.1 |
| 20260505072725 | 60 | 315 | 4.3 | 8.7 | 0.00 | 0.00 | 0.00 | 56 | 1013.2 |
| 20260505072226 | 60 | 307 | 3.5 | 8.7 | 0.00 | 0.00 | 0.00 | 56 | 1013.1 |
| 20260505071725 | 60 | 310 | 4.3 | 8.7 | 0.00 | 0.00 | 0.00 | 58 | 1013.2 |
| 20260505071225 | 60 | 313 | 4.3 | 8.7 | 0.00 | 0.00 | 0.00 | 58 | 1013.2 |
| 20260505070724 | 60 | 296 | 3.5 | 9.6 | 0.00 | 0.00 | 0.00 | 59 | 1013.1 |
| 20260505070228 | 60 | 296 | 5.2 | 9.6 | 0.00 | 0.00 | 0.00 | 59 | 1013.1 |
| 20260505065726 | 60 | 281 | 5.2 | 8.7 | 0.00 | 0.00 | 0.00 | 59 | 1013.1 |
| 20260505065225 | 60 | 281 | 5.2 | 9.6 | 0.00 | 0.00 | 0.00 | 59 | 1013.1 |
| 20260505064725 | 60 | 285 | 6.1 | 9.6 | 0.00 | 0.00 | 0.00 | 58 | 1013.1 |
| 20260505064226 | 60 | 281 | 6.1 | 9.6 | 0.00 | 0.00 | 0.00 | 58 | 1013.0 |
| 20260505063725 | 60 | 290 | 6.1 | 10.4 | 0.00 | 0.00 | 0.00 | 59 | 1013.0 |
| 20260505063226 | 60 | 302 | 6.1 | 12.2 | 0.00 | 0.00 | 0.00 | 60 | 1013.0 |
| 20260505062725 | 60 | 307 | 7.0 | 12.2 | 0.00 | 0.00 | 0.00 | 61 | 1013.0 |
| 20260505062229 | 60 | 314 | 7.0 | 10.4 | 0.00 | 0.00 | 0.00 | 62 | 1013.0 |
| 20260505061725 | 60 | 316 | 7.0 | 10.4 | 0.00 | 0.00 | 0.00 | 62 | 1013.0 |
| 20260505061225 | 60 | 313 | 7.0 | 10.4 | 0.00 | 0.00 | 0.00 | 62 | 1013.0 |
| 20260505060725 | 60 | 310 | 7.0 | 10.4 | 0.00 | 0.00 | 0.00 | 62 | 1013.0 |
| 20260505060225 | 60 | 296 | 6.1 | 12.2 | 0.00 | 0.00 | 0.00 | 62 | 1013.0 |
| 20260505055725 | 60 | 298 | 6.1 | 13.0 | 0.00 | 0.00 | 0.00 | 63 | 1013.0 |
| 20260505055225 | 60 | 309 | 7.8 | 13.0 | 0.00 | 0.00 | 0.00 | 63 | 1013.0 |
| 20260505054724 | 60 | 317 | 7.8 | 11.3 | 0.00 | 0.00 | 0.00 | 63 | 1013.0 |
| 20260505053950 | 60 | 310 | 7.8 | 14.8 | 0.00 | 0.00 | 0.00 | 63 | 1013.0 |
| 20260505053450 | 60 | 317 | 7.8 | 14.8 | 0.00 | 0.00 | 0.00 | 62 | 1013.0 |
| 20260505052951 | 60 | 315 | 8.7 | 13.9 | 0.00 | 0.00 | 0.00 | 62 | 1013.1 |
| 20260505052450 | 60 | 318 | 8.7 | 13.9 | 0.00 | 0.00 | 0.00 | 63 | 1013.1 |
| 20260505051950 | 60 | 316 | 7.8 | 13.0 | 0.00 | 0.00 | 0.00 | 63 | 1013.2 |
| 20260505051449 | 61 | 315 | 7.8 | 13.0 | 0.00 | 0.00 | 0.00 | 64 | 1013.2 |
| 20260505050949 | 61 | 315 | 8.7 | 12.2 | 0.00 | 0.00 | 0.00 | 63 | 1013.3 |
| 20260505050450 | 61 | 315 | 6.1 | 12.2 | 0.00 | 0.00 | 0.00 | 63 | 1013.3 |
| 20260505041449 | 61 | 281 | 0.9 | 3.5 | 0.00 | 0.00 | 0.00 | 64 | 1012.8 |
| 20260505040949 | 61 | 284 | 1.7 | 3.5 | 0.00 | 0.00 | 0.00 | 63 | 1012.6 |
| 20260505040449 | 61 | 285 | 0.9 | 3.5 | 0.00 | 0.00 | 0.00 | 63 | 1012.5 |
| 20260505035949 | 61 | 284 | 0.9 | 3.5 | 0.00 | 0.00 | 0.00 | 62 | 1012.5 |
| 20260505035451 | 61 | 286 | 1.7 | 6.1 | 0.00 | 0.00 | 0.00 | 61 | 1012.5 |
| 20260505034949 | 61 | 280 | 2.6 | 6.1 | 0.00 | 0.00 | 0.00 | 60 | 1012.4 |
| 20260505034450 | 62 | 283 | 3.5 | 6.1 | 0.00 | 0.00 | 0.00 | 60 | 1012.4 |
| 20260505033950 | 62 | 276 | 1.7 | 3.5 | 0.00 | 0.00 | 0.00 | 59 | 1012.4 |
| 20260505033450 | 62 | 280 | 2.6 | 3.5 | 0.00 | 0.00 | 0.00 | 59 | 1012.3 |
| 20260505032950 | 63 | 298 | 0.9 | 2.6 | 0.00 | 0.00 | 0.00 | 59 | 1012.3 |
| 20260505032450 | 63 | 298 | 0.9 | 2.6 | 0.00 | 0.00 | 0.00 | 58 | 1012.3 |
| 20260505031949 | 63 | 299 | 0.9 | 2.6 | 0.00 | 0.00 | 0.00 | 58 | 1012.2 |
| 20260505030949 | 63 | 307 | 0.9 | 2.6 | 0.00 | 0.00 | 0.00 | 58 | 1012.1 |
| 20260505030449 | 63 | 0 | 0.0 | 1.7 | 0.00 | 0.00 | 0.00 | 58 | 1012.0 |
| 20260505025949 | 64 | 0 | 0.0 | 1.7 | 0.00 | 0.00 | 0.00 | 57 | 1012.0 |
| 20260505025449 | 64 | 0 | 0.0 | 5.2 | 0.00 | 0.00 | 0.00 | 57 | 1011.9 |
| 20260505024949 | 64 | 32 | 0.9 | 5.2 | 0.00 | 0.00 | 0.00 | 57 | 1011.9 |
| 20260505024449 | 64 | 40 | 2.6 | 5.2 | 0.00 | 0.00 | 0.00 | 56 | 1011.9 |
| 20260505023951 | 65 | 48 | 2.6 | 7.8 | 0.00 | 0.00 | 0.00 | 56 | 1011.8 |
| 20260505023449 | 65 | 44 | 3.5 | 7.8 | 0.00 | 0.00 | 0.00 | 55 | 1011.9 |
| 20260505022950 | 65 | 46 | 3.5 | 10.4 | 0.00 | 0.00 | 0.00 | 55 | 1011.8 |
| 20260505022450 | 65 | 49 | 4.3 | 10.4 | 0.00 | 0.00 | 0.00 | 55 | 1011.8 |
| 20260505021949 | 66 | 38 | 3.5 | 9.6 | 0.00 | 0.00 | 0.00 | 56 | 1011.8 |
| 20260505020949 | 66 | 35 | 1.7 | 6.1 | 0.00 | 0.00 | 0.00 | 56 | 1011.8 |
| 20260505020449 | 66 | 43 | 2.6 | 7.8 | 0.00 | 0.00 | 0.00 | 57 | 1011.8 |
| 20260505015950 | 66 | 32 | 3.5 | 7.8 | 0.00 | 0.00 | 0.00 | 56 | 1011.8 |
| 20260505015450 | 66 | 7 | 2.6 | 6.1 | 0.00 | 0.00 | 0.00 | 57 | 1011.8 |